#timestamp,LO_Frequency,Hit,StdDev 
1523995215.0,286047000.2,N
1523995216.0,286047000.2,N
1523995235.8,286047000.3,N
1523995255.6,286047001.0,N
1523995275.5,286047000.8,N
1523995295.3,286047000.4,N
1523995315.1,286046999.8,N
1523995335.9,286047002.6,N
1523995355.7,286047001.2,N
1523995375.5,286046998.8,N
1523995395.4,286047000.8,N
1523995415.2,286047000.5,N
1523995435.1,286047002.7,N
1523995436.0,286047002.7,N
1523995455.8,286047000.6,N
1523995475.6,286047000.7,N
1523995495.5,286047002.1,N
1523995515.3,286047002.4,N
1523995535.2,286047002.6,N
1523995555.9,286047002.3,N
1523995575.7,286047002.3,N
1523995595.6,286047002.5,N
1523995615.4,286047002.0,N
1523995635.2,286047000.4,N
1523995655.1,286047000.5,N
1523995656.0,286047000.5,N
1523995675.8,286046999.8,N
1523995695.7,286047001.2,N
1523995715.5,286047001.2,N
1523995735.3,286047002.3,N
1523995755.2,286047002.6,N
1523995775.0,286047002.3,N
1523995775.9,286047002.3,N
1523995795.8,286046999.8,N
1523995815.6,286047002.8,N
1523995835.4,286047002.5,N
1523995855.3,286047002.4,N
1523995875.1,286047004.3,Y
1523995895.8,286047001.0,P
1523995915.7,286047000.6,N
1523995935.5,286047000.1,N
1523995955.4,286047000.3,N
1523995975.2,286047000.5,N
1523995995.0,286046998.4,Y
1523995995.9,286046998.4,P
1523996015.8,286046996.5,P
1523996035.6,286046998.6,N
1523996055.5,286047001.0,N
1523996075.3,286046998.3,N
1523996095.1,286046998.4,N
1523996115.9,286046997.1,N
1523996135.7,286046996.6,N
1523996155.5,286046999.5,N
1523996175.4,286046999.0,N
1523996195.2,286046999.6,N
1523996215.1,286046997.8,N
1523996216.0,286046997.8,N
1523996235.8,286046995.8,Y
1523996255.6,286046997.0,P
1523996275.5,286046999.3,N
1523996295.3,286047000.7,N
1523996315.2,286047001.1,N
1523996335.9,286047000.3,N
1523996355.7,286047000.6,N
1523996375.6,286047000.6,N
1523996395.4,286047000.6,N
1523996415.2,286047002.5,N
1523996435.1,286047000.2,N
1523996436.0,286047000.2,N
1523996455.8,286047002.1,N
1523996475.7,286047001.8,N
1523996495.5,286047001.4,N
1523996515.3,286047004.2,Y
1523996535.2,286047002.5,P
1523996555.0,286047001.6,N
1523996555.9,286047001.6,N
1523996575.8,286046999.9,N
1523996595.6,286047001.5,N
1523996615.4,286047002.1,N
1523996635.3,286047001.6,N
1523996655.1,286047001.5,N
1523996675.9,286047001.8,N
1523996695.7,286047001.5,N
1523996715.5,286047001.3,N
1523996735.4,286047001.5,N
1523996755.2,286047004.4,Y
1523996775.0,286046999.8,P
1523996776.0,286046999.8,N
1523996795.8,286047002.7,P
1523996815.6,286047000.8,N
1523996835.5,286046998.6,N
1523996855.3,286046998.5,N
1523996875.1,286046998.7,N
1523996895.9,286046997.1,N
1523996915.7,286046998.8,N
1523996935.5,286046999.1,N
1523996955.4,286046998.3,N
1523996975.2,286047000.3,N
1523996995.1,286047000.7,N
1523996996.0,286047000.7,N
1523997015.8,286047001.0,N
1523997035.6,286047002.8,N
1523997055.5,286047002.7,N
1523997075.3,286046999.9,N
1523997095.2,286047002.3,N
1523997115.9,286047002.3,N
1523997135.7,286047002.3,N
1523997155.6,286047001.9,N
1523997175.4,286047001.1,N
1523997195.3,286047001.1,N
1523997215.1,286046999.0,N
1523997216.0,286046999.0,N
1523997235.8,286046999.0,N
1523997255.7,286046999.5,N
1523997275.5,286046998.3,N
1523997295.3,286047001.2,N
1523997315.2,286047001.1,N
1523997335.0,286047000.4,N
1523997335.9,286047000.4,N
1523997355.8,286047001.0,N
1523997375.6,286047001.1,N
1523997395.4,286046999.0,N
1523997415.3,286046997.7,N
1523997435.1,286046999.0,N
1523997455.9,286046996.8,N
1523997475.7,286046997.7,N
1523997495.5,286046997.3,N
1523997515.4,286046997.4,N
1523997535.2,286046997.9,N
1523997555.0,286046995.3,N
1523997556.0,286046995.3,N
1523997575.8,286046998.4,N
1523997595.6,286046998.6,N
1523997615.5,286046999.5,N
1523997635.3,286047000.7,N
1523997655.1,286047000.7,N
1523997675.9,286046998.8,N
1523997695.7,286046999.5,N
1523997715.5,286046998.6,N
1523997735.4,286046998.9,N
1523997755.2,286046999.2,N
1523997775.1,286046998.2,N
1523997776.0,286046998.2,N
1523997795.8,286047000.7,N
1523997815.6,286047000.9,N
1523997835.5,286046998.2,N
1523997855.3,286047000.8,N
1523997875.2,286047000.8,N
1523997895.9,286047000.8,N
1523997915.7,286047000.7,N
1523997935.6,286046998.6,N
1523997955.4,286046998.1,N
1523997975.3,286046999.9,N
1523997995.1,286047000.0,N
1523997996.0,286047000.0,N
1523998015.8,286047000.4,N
1523998035.7,286047002.4,N
1523998055.5,286047002.1,N
1523998075.3,286047002.0,N
1523998095.2,286047000.0,N
1523998115.0,286047000.9,N
1523998115.9,286047000.9,N
1523998135.8,286047000.3,N
1523998155.6,286047000.9,N
1523998175.4,286047000.4,N
1523998195.3,286047000.5,N
1523998215.1,286047000.6,N
1523998235.9,286047001.0,N
1523998255.7,286046999.5,N
1523998275.5,286046997.0,N
1523998295.4,286046997.8,N
1523998315.2,286046997.9,N
1523998335.0,286046995.7,Y
1523998335.9,286046995.7,P
1523998355.8,286046993.4,P
1523998375.6,286046996.0,N
1523998395.5,286046996.0,N
1523998415.3,286046993.7,N
1523998435.1,286046993.8,N
1523998455.9,286046994.2,N
1523998475.7,286046995.9,N
1523998495.5,286046995.5,N
1523998515.4,286046995.9,N
1523998535.2,286046994.9,N
1523998555.1,286046995.6,N
1523998556.0,286046995.6,N
1523998575.8,286046995.9,N
1523998595.6,286046996.4,N
1523998615.5,286046993.5,Y
1523998635.3,286046998.1,P
1523998655.2,286047000.3,N
1523998675.9,286047001.0,N
1523998695.7,286047000.5,N
1523998715.6,286047002.0,N
1523998735.4,286047002.8,N
1523998755.2,286046999.8,N
1523998775.1,286047000.3,N
1523998776.0,286047000.3,N
1523998795.8,286046998.9,N
